カタログに戻る

STARLINK-4676

運用中通信VLEO
NORAD 53598·PAYLOAD·🇺🇸 United States

打ち上げ Aug 28, 2022 から Cape Canaveral Space Force Station

Loading…

次のパス (今後24時間)

TLE

最新Source: CelesTrak SupGP

元期: Sep 14, 2026, 21:03 UTC

1 53598C 22104L   26257.87756944  .00648220  00000+0  30145-1 0  2573
2 53598  53.1599 111.7406 0001264  87.3067 180.6788 15.19122736    14

AllMySatでSTARLINK-4676をリアルタイム追跡

Download on the App Store